942  
ASUS41 KOKX 042105  
RWROKX  
 
REGIONAL WEATHER ROUNDUP  
NATIONAL WEATHER SERVICE NEW YORK NY  
400 PM EST SUN DEC 04 2022  
 
NOTE: "FAIR" INDICATES FEW OR NO CLOUDS BELOW 12,000 FEET WITH NO  
SIGNIFICANT WEATHER AND/OR S TO VISIBILITY
.  
 
NYZ071-072-176-178-NJZ106-104-042200-  
NEW YORK CITY METRO AREA  
 
CITY SKY/WX TMP DP RH WIND PRES REMARKS
 
CENTRAL PARK PTCLDY 44 20 38 NW3 30.20R  
WORLD TRD CTR NOT AVBL  
BRONX LEHMAN C N/A 43 21 42 N5 N/A  
LAGUARDIA ARPT MOCLDY 45 20 36 NW10 30.17R  
QUEENS COLLEGE N/A 45 21 39 NW6 N/A  
KENNEDY INTL MOCLDY 44 22 41 SW7 30.18R  
BREEZY POINT N/A 45 N/A N/A SW5G12 N/A  
BROOKLYN COLL N/A 45 23 42 NW7 N/A  
STATEN ISLAND N/A 45 25 45 W7 N/A  
NEWARK/LIBERTY MOCLDY 47 23 38 NW8 30.18R  
TETERBORO PTCLDY 43 21 41 NW7 30.17R  

 
 
NYZ177-179-078>081-042200-  
LONG ISLAND NEW YORK  
 
CITY SKY/WX TMP DP RH WIND PRES REMARKS
 
JONES BEACH N/A 45 N/A N/A W3 N/A  
WANTAGH N/A 45 21 39 NW2 N/A  
HEMPSTEAD NOT AVBL  
MATINECOCK PT N/A 46 N/A N/A NW8 N/A  
FARMINGDALE PTCLDY 44 19 36 N6 30.18R  
MACARTHUR/ISP MOCLDY 42 20 41 NW3 30.18R  
STONY BROOK N/A 41 23 48 W1 N/A  
SHIRLEY PTCLDY 42 21 43 SW6 30.18R  
MT SINAI HARB N/A 41 N/A N/A SW3 N/A  
WESTHAMPTON PTCLDY 41 23 48 W3 30.19R  
EAST HAMPTON FAIR 40 20 44 NW3 30.17R  
SOUTHOLD N/A 41 25 52 N5 N/A  
MONTAUK N/A 44 24 45 N5 30.17R  

 
 
NYZ052-065-067-042200-  
HUDSON VALLEY  
 
CITY SKY/WX TMP DP RH WIND PRES REMARKS
 
WHITE PLAINS PTCLDY 40 22 48 NW5 30.17R  
LARCHMONT HARB N/A 43 N/A N/A NW5 N/A  
CROTON ON HUDS N/A 43 N/A N/A W7 N/A  
SOMERS N/A 37 19 48 W1 N/A  
BREWSTER N/A 37 19 48 NW2 N/A  
NEWBURGH CLEAR 39 21 48 W7 30.15R WCI 34  
MONTGOMERY MOCLDY 38 18 44 W5 30.15R WCI 34  
OTISVILLE N/A 37 21 52 W1 N/A  
WARWICK N/A 39 21 48 NW3 N/A  
SUFFERN N/A 39 21 48 NW3 N/A  
POUGHKEEPSIE MOCLDY 40 21 46 CALM 30.16R  
ALBANY MOCLDY 37 21 52 CALM 30.14F  

 
 
NJZ001-105-106-008-010-013-015-019>022-104-042200-  
NEW JERSEY  
 
CITY SKY/WX TMP DP RH WIND PRES REMARKS
 
NEWARK/LIBERTY MOCLDY 47 23 38 NW8 30.18R  
TETERBORO PTCLDY 43 21 41 NW7 30.17R  
CALDWELL MOCLDY 44 21 40 CALM 30.18R  
SOMERVILLE PTCLDY 43 24 47 NW6 30.16R  
LINDEN FAIR 45 24 43 NW8 30.18R  
PERTH AMBOY N/A 43 N/A N/A W8 N/A  
SUSSEX MOCLDY 42 20 41 NW3 30.16R  
ANDOVER N/A 43 24 47 CALM 30.16R  
TRENTON PTCLDY 42 23 46 W6 30.18R  
MILLVILLE PTCLDY 43 26 51 W8 30.20R  
ATLANTIC CITY PTCLDY 45 25 45 W7 30.19R  
WRIGHTSTOWN PTCLDY 42 23 46 W7 30.18S  
TOMS RIVER NOT AVBL  
BELMAR PTCLDY 44 26 49 SW7 30.19R  

 
 
PAZ047>061-062-071-042200-  
EASTERN PENNSYLVANIA  
 
CITY SKY/WX TMP DP RH WIND PRES REMARKS
 
PHILADELPHIA PTCLDY 44 24 45 W8 30.20S  
ALLENTOWN PTCLDY 41 22 46 W6 30.18R  
SCRANTON MOCLDY 39 22 50 SW6 30.14S WCI 35  

 
 
CTZ002-004>006-009-010-012-RIZ004-006-007-MAZ004-011-015-042200-  
SOUTHERN NEW ENGLAND  
 
IN CT  
 
CITY SKY/WX TMP DP RH WIND PRES REMARKS
 
BRADLEY INTL CLOUDY 39 19 44 NW7 30.17R WCI 34  
HARTFORD PTCLDY 40 20 44 N5 30.18R  
DANBURY PTCLDY 41 17 38 NW3 30.18R  
WTRBURY/OXFORD PTCLDY 36 21 54 CALM 30.15R  
NORWALK HARBOR N/A 41 N/A N/A W5 N/A  
BRIDGEPORT PTCLDY 42 20 41 N6 30.18R  
MERIDEN PTCLDY 40 21 46 N6 30.17R  
NEW HAVEN PTCLDY 42 24 49 NE7 30.17R  
CHESTER FAIR 37 19 48 NW6 30.16R WCI 33  
GROTON CLEAR 41 23 48 NW7 30.16R  
WILLIMANTIC PTCLDY 38 21 50 NW8 30.17R WCI 32  
 
IN RI  
 
CITY SKY/WX TMP DP RH WIND PRES REMARKS
 
PROVIDENCE MOCLDY 40 21 46 W7 30.16R  
BLOCK ISLAND CLEAR 40 22 48 VRB3 30.16R  
WESTERLY CLEAR 41 22 46 CALM 30.16R  
 
IN MA  
 
CITY SKY/WX TMP DP RH WIND PRES REMARKS
 
BOSTON CLOUDY 41 18 39 NW9 30.15R  
WORCESTER CLEAR 36 18 48 W6 30.11R WCI 31  
WESTFIELD PTCLDY 37 19 48 W6 30.16R WCI 32  
PROVINCETOWN CLEAR 40 22 48 NW8 30.15R WCI 34  
NANTUCKET PTCLDY 42 26 53 N5 30.14R  

 
 
ANZ330-335-338-340-345-350-353-355-042200-  
COASTAL MARINE OBSERVATIONS  
 
 
STATION/POSITION TIME SKY/WX TEMP WIND PRES VSBY WAVE
 
AIR SEA DIR/SP/G HT/PER  
(UTC) (F) (DEG/KT/KT) (MB) (MI) (FT/S)  
NY HARB ENTRANCE 2040 52 300/ 6/ 10 1021.1  
20 S FIRE ISLAND 2040 54 1021.2  
GREAT SOUTH BAY 2000 43 340/ 6/ 10 N/A  
23 SSW MONTAUK P 2040 42 290/ 6/ 12 1021.9  
15 E BARNEGAT LI 2026 53 N/A 2/ 5  
HUDSON CANYON 2040 44 58 310/ 8/ 12 1021.1  
KINGS POINT 2030 44 49 290/ 6/ 8 1021.9  
EXECUTION ROCKS 2030 45 49 320/ 6 N/A  
WESTERN LI SOUND 2045 44 330/ 8/ 12 N/A  
CENTRAL LI SOUND NOT AVBL  
ROBBINS REEF 2030 45 320/ 4/ 6 1021.4  

 
 
>>>>>>>>>>>>>>>>>>>>>>>>>>>> KEY <<<<<<<<<<<<<<<<<<<<<<<<<<<  
> <  
> SKY/WX - SKY CONDITION/PRESENT WEATHER <  
> TMP - TEMPERATURE IN FAHRENHEIT <  
> DP - DEW POINT IN FAHRENHEIT <  
> RH - RELATIVE HUMIDITY IN PERCENT <  
> WIND - DIRECTION (FROM) AND SPEED IN MPH <  
> PRES - MEAN SEA LEVEL PRESSURE (INCHES OF HG) <  
> WCI - WIND CHILL INDEX <  
> VSB - VISIBILITY IN MILES <  
> HX - HEAT INDEX <  
> TC - TEMPERATURE IN CELSIUS <  
> VRB - VARIABLE WIND DIRECTION <  
> <  
>>>>>>>>>>>>>>>>>>>>>>>>>>>> KEY <<<<<<<<<<<<<<<<<<<<<<<<<<<  
 
 
CLICK HERE TO GO TO PREVIOUS BULLETINS.

The Nexlab NY Page
The Nexlab NJ Page
The Nexlab CT Page Main Text Page